7 * 24
多渠道服务支持
STARLINK-37150(NORAD编号68315)是SpaceX星链(Starlink)星座中的一颗卫星,属于星链卫星互联网项目的组网卫星,运行在近地轨道,主要为全球提供高速低延迟互联网接入服务。 星链卫星通常由猎鹰9号火箭发射,该卫星继承了星链星座的设计,配备星间激光通信链路与轨道机动系统,可降低通信延迟并规避空间碎片。目前该卫星正常在轨运行,助力星链扩展全球覆盖范围,支撑消费互联网、海事航空联网等多场景应用。
美国
(US)
| 数据来源 | 国际轨道数据 |
| 星历时间: | 2026-07-27T12:55:18+0800 20小时前 查看轨道信息 |
| 半长轴: | 6843.679km |
| 偏心率: | 0.0001299 |
| 轨道倾角: | 97.286° |
| 近地点辐角 | 79.962° |
| 升交点赤经 | 334.447° |
| 平近点角 | 280.177° |
| 近地点: | 464.653km |
| 远地点: | 466.431km |
| 周期: | 93.906分钟 |
| 每日圈数: | 15.334454 |